Regional Weather Roundup
Issued by NWS

Home | Current Version | Previous Version | Text Only | Print | Product List | Glossary On
Versions: 1 2 3 4 5 6 7 8 9 10 11 12 13 14 15 16 17 18 19 20 21 22 23 24 25 26 27 28 29 30 31 32 33 34 35 36 37 38 39 40 41 42 43 44 45 46 47 48 49 50
000
ASUS43 KMPX 012310
RWRMN
WEATHER ROUNDUP FOR MINNESOTA
NATIONAL WEATHER SERVICE TWIN CITIES/CHANHASSEN MN
600 PM CDT FRI AUG 01 2014


NOTE: "FAIR" INDICATES FEW OR NO CLOUDS BELOW 12,000 FEET WITH NO
SIGNIFICANT WEATHER AND/OR OBSTRUCTIONS TO VISIBILITY. N/A MEANS
CURRENT SKY AND/OR WEATHER CONDITIONS ARE NOT AVAILABLE.

MNZ060>063-068>070-020000-
   Twin Cities Metro

CITY           SKY/WX    TMP DP  RH WIND       PRES   REMARKS
TWIN CITIES    PTSUNNY   85  57  38 W10       30.03S
ST PAUL        PTSUNNY   82  57  42 E5        30.03S
CRYSTAL        SUNNY     85  57  38 NW7       30.03S
BLAINE         MOSUNNY   84  57  39 CALM      30.04
LAKEVILLE      SUNNY     81  61  50 SW5       30.05S
EDEN PRAIRIE   MOSUNNY   83  59  44 W7        30.04S
SOUTH ST PAUL  PTSUNNY   83  57  41 SE3       30.03S
LAKE ELMO      FAIR      79  59  50 CALM      30.05S
$$
MNZ001>005-007-008-013>017-022>024-027-028-020000-
   Northwest Minnesota

CITY           SKY/WX    TMP DP  RH WIND       PRES   REMARKS
BEMIDJI        MOSUNNY   77  55  45 N8        30.07S
HALLOCK        SUNNY     81  57  44 CALM      30.05S
ROSEAU         SUNNY     81  55  41 CALM      30.06S
WARROAD        SUNNY     79  59  50 E6        30.07F
THIEF RVR FALL MOSUNNY   81  55  41 NE3       30.08S
CROOKSTON      MOSUNNY   79  59  50 NW5       30.08S
FOSSTON        MOSUNNY   79  59  50 N3        30.09R
DETROIT LAKES  SUNNY     77  54  44 N3        30.09S
MOORHEAD       MOSUNNY   81  57  44 N7        30.07S
PARK RAPIDS    SUNNY     80  52  37 N5        30.07S
$$
MNZ006-009>011-018-025>026-020000-
   North Central Minnesota

CITY           SKY/WX    TMP DP  RH WIND       PRES   REMARKS
BAUDETTE       SUNNY     77  40  26 NW6       30.08S
FLAG ISLAND    SUNNY     77  55  47 S3        30.05S
INTL FALLS     SUNNY     77  48  35 NE7       30.06S
WASKISH        SUNNY     79  48  34 CALM      30.07S
BIG FORK       SUNNY     79  55  44 N2        30.07S
LONGVILLE      SUNNY     77  57  50 N3        30.06F
GRAND RAPIDS   MOSUNNY   79  55  44 N5        30.06S
CRANE LAKE     SUNNY     75  45  33 N5        30.07F
ORR            SUNNY     77  48  36 CALM      30.04F
COOK           SUNNY     77  54  44 CALM      30.07S
$$
MNZ012-019>021-037-020000-
   Northeast Minnesota

CITY           SKY/WX    TMP DP  RH WIND       PRES   REMARKS
DULUTH         TSTM      67  57  70 NE7       30.08R
ELY            SUNNY     75  48  38 N3        30.06S
HIBBING        SUNNY     80  55  42 N8        30.05S
EVELETH        MOSUNNY  N/A N/A N/A NE6       30.07R
DULUTH HARBOR  MOSUNNY   63  55  77 NE12      30.08R
TWO HARBORS    MOSUNNY   72  54  53 S5        30.06R
SILVER BAY     SUNNY     70  55  60 SE3       30.06S
G MARAIS ARPRT SUNNY     64  48  55 S3        30.11S
$$
MNZ029>031-032-039>041-046>048-054>057-064-020000-
   West Central Minnesota

CITY           SKY/WX    TMP DP  RH WIND       PRES   REMARKS
FERGUS FALLS   SUNNY     81  54  39 N8        30.05S
WHEATON        SUNNY     79  63  57 W7        30.07F
MORRIS         MOSUNNY   75  66  73 CALM      30.06S
ALEXANDRIA     SUNNY     81  57  43 NW6       30.08F
ELBOW LAKE     FAIR      78  63  61 SW3       30.06S
WADENA         SUNNY     79  57  47 NW3       30.06S
GLENWOOD       SUNNY     81  57  44 NW7       30.08F
APPLETON       SUNNY     86  54  32 NW7       30.06S
BENSON         SUNNY     82  61  47 NW5       30.06S
ORTONVILLE     SUNNY     82  55  39 N3        30.07S
MADISON        SUNNY     84  63  48 CALM      30.07S
WILLMAR        FAIR      82  57  42 W6        30.07F
$$
MNZ033>034-036-042>043-049>051-058-059-020000-
   Central Minnesota

CITY           SKY/WX    TMP DP  RH WIND       PRES   REMARKS
ST CLOUD       MOSUNNY   84  56  38 SW3       30.05S
SAUK CENTRE    FAIR      81  56  42 NW8       30.07S
PAYNESVILLE    HVY RAIN  71  54  55 SE8G18    30.07R
AITKIN         SUNNY     81  59  47 CALM      30.04S
PINE RIVER     MOSUNNY   81  57  44 N6        30.09S
BRAINERD       SUNNY     78  58  49 NE3       30.06S
STAPLES        SUNNY     81  52  36 N5        30.05F
LONG PRAIRIE   FAIR      79  57  47 NW6       30.07S
LITTLE FALLS   PTSUNNY   77  57  50 SE14G21   30.07R
LITCHFIELD     MOSUNNY   77  63  61 CALM      30.07S
BUFFALO        MOSUNNY   80  61  52 NW5       30.06R
MAPLE LAKE     PTSUNNY   80  61  53 CALM      30.07R
$$
MNZ037-044-045-052-053-020000-
   East Central Minnesota

CITY           SKY/WX    TMP DP  RH WIND       PRES   REMARKS
PRINCETON      MOSUNNY   75  63  64 SW6       30.06R
MORA           MOSUNNY   77  59  53 CALM      30.07S
CAMBRIDGE      MOSUNNY   79  64  61 CALM      30.03F
RUSH CITY      PTSUNNY   80  60  50 W3        30.05S
MOOSE LAKE     MOSUNNY   79  59  50 SW5       30.03S
HINCKLEY       FAIR      79  63  57 CALM      30.05S
CLOQUET        MOSUNNY   72  57  60 S6        30.07R
MCGREGOR       MOSUNNY   79  57  47 NW5       30.05S
$$
MNZ071>073-080-081-089-090-097-098-020000-
   Southwest Minnesota

CITY           SKY/WX    TMP DP  RH WIND       PRES   REMARKS
MONTEVIDEO     SUNNY     84  59  42 CALM      30.07S
GRANITE FALLS  MOSUNNY   79  64  59 NE3       30.08S
CANBY          MOSUNNY   82  55  39 CALM      30.08S
MARSHALL       SUNNY     82  55  39 W3        30.07S
REDWOOD FALLS  MOSUNNY   79  61  53 W13       30.06S
OLIVIA         MOSUNNY   81  59  47 NW8       30.06F
PIPESTONE      PTSUNNY   79  57  47 SW3       30.10F
WINDOM         SUNNY     81  55  41 CALM      30.09S
WORTHINGTON    SUNNY     81  57  44 E3        30.11F
JACKSON        SUNNY     79  54  41 CALM      30.10S
TRACY          SUNNY     82  57  43 CALM      30.09S
SLAYTON        MOSUNNY   80  54  40 CALM      30.11S
$$
MNZ065>067-074>077-082>085-091>093-020000-
   South Central Minnesota

CITY           SKY/WX    TMP DP  RH WIND       PRES   REMARKS
MANKATO        MOSUNNY   81  57  44 W6        30.06F
NEW ULM        SUNNY     81  61  50 W3        30.06S
ST JAMES       SUNNY     84  55  37 CALM      30.08S
FAIRMONT       SUNNY     82  48  30 NW6       30.09R
GLENCOE        MOSUNNY   80  59  48 CALM      30.05S
FARIBAULT      SUNNY     84  52  32 SW3       30.06F
OWATONNA       SUNNY     81  57  44 CALM      30.07S
WASECA         SUNNY     79  55  44 CALM      30.09S
ALBERT LEA     SUNNY     81  54  39 CALM      30.08S
$$
MNZ078>079-086>088-094>096-020000-
   Southeast Minnesota

CITY           SKY/WX    TMP DP  RH WIND       PRES   REMARKS
ROCHESTER      SUNNY     80  58  46 W6        30.08F
RED WING       SUNNY     84  55  37 SW5       30.03S
STANTON        SUNNY     82  57  42 W5        30.04S
DODGE CENTER   SUNNY     81  57  44 NW7       30.07F
WINONA         PTSUNNY   81  57  44 W7        30.05R
AUSTIN         SUNNY     79  55  44 NW5       30.07F
PRESTON        SUNNY     78  64  63 W6        30.08S
$$
ABBREVIATIONS USED IN REMARKS
   TC - TEMPERATURES IN CELSIUS
  WCI - WIND CHILL INDEX
   HX - HEAT INDEX
  VSB - VISIBILITY
$$



USA.gov is the U.S. government's official web portal to all federal, state and local government web resources and services.